Погода в Уссурийске

Россия / Приморский край     43°47′50″N   131°57′06″E
темп.,
°C
ветер,
м/с
пор.,
м/с
влажн.,
%
обл.,
%
осадки,
мм/ч
давл.,
гПа
погр.,
м
4 марта, чт
чт401:000ю8168994 0.1 1022671
04:000ю8159076 0.1 1020434
07:00−2ю6139115 0.0 1020309
10:00+1ю8158928 0.0 1019476
13:00+3ю815860 0.0 1017637
16:00+3ю916740 0.0 1015638
19:00+1ю8167624 0.0 1015438
22:000ю7138459 0.0 1016285
5 марта, пт
пт501:00−1ю510887 0.0 1016194
04:00−1ю59894 0.0 1016149
07:00−1ю588867 0.0 1015142
10:000ю488383 0.0 1016194
13:00+2сз51072100 0.2 1018739
16:00−1ссз91254100 0.3 10211176
19:00−6с61088100 0.6 1026746
22:00−9ссз91253100 0.8 10301146
6 марта, сб
сб601:00−13с812560 0.0 10331106
04:00−15с812600 0.0 10351057
07:00−15с712570 0.0 10371070
10:00−14с59530 0.0 10381018
13:00−10с47490 0.0 10371157
16:00−8с35479 0.0 10351109
19:00−9всв33590 0.0 1034354
22:00−10юв11670 0.0 103544
7 марта, вс
вс701:00−11ю12660 0.0 103423
04:00−11ююв22660 0.0 103353
07:00−12ююв24650 0.0 103283
10:00−9ю355821 0.0 1030290
13:00−4ю47551 0.0 1027509
16:00−1ю46581 0.0 1025625
19:00−3ююв36770 0.0 1025218
22:00−5ююв22860 0.0 102724
8 марта, пн
пн801:00−6ссз22850 0.0 102831
04:00−7ссв22770 0.0 102929
07:00−8ссв11810 0.0 103021
10:00−6ссв01670 0.0 1030155
13:00−2с11510 0.0 1029410
16:00+1всв11440 0.0 1027387
19:00−1ю24540 0.0 102682
22:00−3ю510664 0.0 1027289